SCP
0 0 0 0 0 0 0 0 0 0 0 0 0 0 0 0 0 0 0 0 0 0
0 0 0 0 0 0 0 0 0 0 0 0 0 0 0 0 0 0 0 0 0 0
0 0 0 0 0 0 0 0 0 0 0 0 0 0 0 0 0 0 0 0 0 0
0 0 0 0 0 0 0 0 0 0 0 0 0 0 0 0 0 0 0 0 0 0
0 0 0 0 0 0 0 0 0 0 0 0 0 0 0 0 0 0 0 0 0 0
0 0 0 0 0 0 0 0 0 0 0 0 0 0 -0 0 0 0 0 0 0 0
0 0 0 0 0 0 0 0 0 0 0 0 0 0 0 0 0 0 0 0 0 0
0 0 0 0 0 0 0 0 0 0 0 0 0 0 0 0 0 0 0 0 0 0
0 0 0 0 0 0 0 0 0 0 0 0 0 0 0 0 0 0 0 0 0 0
0 0 0 0 0 0 0 0 0 0 0 0 0 0 0 0 0 0 0 0 0 0
0 0 0 0 0 0 0 0 0 0 0 0 0 0 0 0 0 0 0 0 0 0
0 0 0 0 0 0 0 0 0 0 0 0 0 0 0 0 0 0 0 0 0 0
0 0 0 0 0 0 0 0 0 0 0 0 0 0 0 0 0 0 0 0 0 0
0 0 0 0 0 0 0 0 0 0 0 0 0 0 0 0 0 0 0 0 0 0
Wind_Speed_500mb
23 23 28 33 32 37 42 40 41 37 34 30 32 34 31 28 24 22 20 21 21 16
24 24 28 33 29 37 43 40 39 37 35 32 34 37 36 31 25 23 19 20 21 18
25 26 27 33 31 38 39 41 41 39 37 35 35 38 38 33 28 26 23 17 18 15
29 25 25 31 32 36 37 39 41 39 38 39 39 41 46 42 31 30 32 26 23 22
30 28 23 28 30 33 34 37 37 34 36 37 39 41 45 44 41 35 33 31 27 27
22 28 29 27 27 29 30 33 33 31 32 35 39 44 47 47 46 39 37 35 35 32
16 26 30 25 23 26 27 29 29 27 28 25 31 35 40 44 46 43 37 32 35 36
14 21 24 23 21 24 25 25 28 24 25 21 25 27 35 37 40 40 40 34 31 32
19 18 20 21 17 23 23 22 23 25 22 23 22 25 27 30 33 34 35 39 36 32
19 14 14 24 22 20 23 26 23 22 23 21 21 22 25 27 25 29 29 30 28 28
19 15 14 20 16 20 23 25 26 25 21 21 22 21 24 24 25 26 28 27 24 23
17 18 20 12 12 23 28 30 29 29 27 24 22 22 23 23 23 25 25 26 26 24
7 14 17 16 9 17 25 31 32 30 29 30 28 23 26 27 26 27 25 26 28 28
4 3 9 11 12 15 24 29 38 33 31 33 29 27 24 26 27 29 30 30 31 29
Wind_Direction_500mb
28 23 21 23 25 21 17 16 16 15 16 13 11 10 6 2 4 10 10 6 360 3
24 25 23 18 26 23 22 28 23 22 18 21 12 11 14 20 22 16 11 13 6 4
27 25 23 23 29 26 26 29 30 28 27 22 19 18 19 25 31 25 18 16 11 2
25 25 21 23 28 26 24 25 26 29 31 29 32 36 31 31 33 30 31 33 25 17
26 22 21 22 26 26 25 26 29 35 35 39 41 36 35 36 36 35 31 34 30 29
16 22 20 16 20 23 25 26 31 37 38 46 48 45 40 36 37 37 35 37 31 24
355 4 4 5 16 18 22 24 29 34 38 41 37 38 37 35 34 33 34 35 21 16
340 353 4 10 17 18 18 19 24 24 27 24 20 39 29 24 27 26 28 18 10 15
346 344 2 9 13 12 17 18 20 21 19 21 23 9 15 18 16 12 18 25 33 40
346 337 5 14 9 13 15 16 15 17 16 13 16 11 8 16 14 6 17 26 27 35
342 1 4 351 356 6 1 358 4 0 358 1 359 3 359 358 9 14 14 19 22 23
336 339 332 322 349 0 354 348 343 343 348 345 342 335 337 344 342 350 359 358 358 358
344 346 336 318 327 346 342 341 332 327 333 325 329 325 320 322 333 334 340 346 342 335
285 2 336 325 309 325 327 339 341 332 328 333 317 319 313 309 311 316 326 335 338 335
Wind_Speed_850mb
23 23 28 33 32 37 42 40 41 37 34 30 32 34 31 28 24 22 20 21 21 16
24 24 28 33 29 37 43 40 39 37 35 32 34 37 36 31 25 23 19 20 21 18
25 26 27 33 31 38 39 41 41 39 37 35 35 38 38 33 28 26 23 17 18 15
29 25 25 31 32 36 37 39 41 39 38 39 39 41 46 42 31 30 32 26 23 22
30 28 23 28 30 33 34 37 37 34 36 37 39 41 45 44 41 35 33 31 27 27
22 28 29 27 27 29 30 33 33 31 32 35 39 44 47 47 46 39 37 35 35 32
16 26 30 25 23 26 27 29 29 27 28 25 31 35 40 44 46 43 37 32 35 36
14 21 24 23 21 24 25 25 28 24 25 21 25 27 35 37 40 40 40 34 31 32
19 18 20 21 17 23 23 22 23 25 22 23 22 25 27 30 33 34 35 39 36 32
19 14 14 24 22 20 23 26 23 22 23 21 21 22 25 27 25 29 29 30 28 28
19 15 14 20 16 20 23 25 26 25 21 21 22 21 24 24 25 26 28 27 24 23
17 18 20 12 12 23 28 30 29 29 27 24 22 22 23 23 23 25 25 26 26 24
7 14 17 16 9 17 25 31 32 30 29 30 28 23 26 27 26 27 25 26 28 28
4 3 9 11 12 15 24 29 38 33 31 33 29 27 24 26 27 29 30 30 31 29
Wind_Direction_850mb
28 23 21 23 25 21 17 16 16 15 16 13 11 10 6 2 4 10 10 6 360 3
24 25 23 18 26 23 22 28 23 22 18 21 12 11 14 20 22 16 11 13 6 4
27 25 23 23 29 26 26 29 30 28 27 22 19 18 19 25 31 25 18 16 11 2
25 25 21 23 28 26 24 25 26 29 31 29 32 36 31 31 33 30 31 33 25 17
26 22 21 22 26 26 25 26 29 35 35 39 41 36 35 36 36 35 31 34 30 29
16 22 20 16 20 23 25 26 31 37 38 46 48 45 40 36 37 37 35 37 31 24
355 4 4 5 16 18 22 24 29 34 38 41 37 38 37 35 34 33 34 35 21 16
340 353 4 10 17 18 18 19 24 24 27 24 20 39 29 24 27 26 28 18 10 15
346 344 2 9 13 12 17 18 20 21 19 21 23 9 15 18 16 12 18 25 33 40
346 337 5 14 9 13 15 16 15 17 16 13 16 11 8 16 14 6 17 26 27 35
342 1 4 351 356 6 1 358 4 0 358 1 359 3 359 358 9 14 14 19 22 23
336 339 332 322 349 0 354 348 343 343 348 345 342 335 337 344 342 350 359 358 358 358
344 346 336 318 327 346 342 341 332 327 333 325 329 325 320 322 333 334 340 346 342 335
285 2 336 325 309 325 327 339 341 332 328 333 317 319 313 309 311 316 326 335 338 335